SL-14 DEB, 45654

Orbit data source: Space-Track

SL-14 DEB, 45654 is space debris in LEO originally from a launch on Thu, 15 Aug 1991 UTC launched from the Plesetsk Missile And Space Complex (PKMTR). Debris objects in space refer to the collection of defunct objects orbiting the Earth. Examples of debris include non-operational satellites, rocket bodies, and fragments generated from explosions, collisions, or faulty payload assembly.

Loading next visibility...
Identifier
45654, 1991-056CY
Orbit
LEO
Country
Flag of CISCIS
Related business
Manufacturer
Unknown
Mission
Spacecraft
Bus & Motor
Unknown
Mass
Unknown
Launch date (UTC)
1991-08-15 (35 years ago)
Launch vehicle
Unknown
Launch site
Plesetsk Missile And Space Complex (PKMTR)
Object type
Payload
Rocket body
Debris
Shape & HBR
Unknown shape, 0.1 m
Radar Cross Section
Small (<0.1 m²)

Expand to show TLE details & history
Last TLE update: 22 hours ago

TLE from 22 hours ago
0 SL-14 DEB
1 45654U 91056CY  26126.05947222  .00000414  00000-0  94005-3 0  9993
2 45654  82.5755 158.4155 0033127 134.2397 226.1457 13.23766867299008
Epoch: 2026-05-06T01:25Z
TLE epoch observation values (Epoch: 2026-05-06T01:25:38.399Z)
Latitude
-0.0001°
Longitude
-86.91991°
Altitude
1,190.555 km
Speed
7.25 km/s
True Right ascension
10h 33m 39s
True Declination
0° 00' 00"
Sunlit
Object was in daylight at epoch
Visualization orbit readout
Latitude
Unknown
Longitude
Unknown
Altitude
Unknown
Speed
Unknown
Apparent Right ascension
Unknown
Apparent Declination
Unknown
Sunlit
N/A
Visualization observer readout
Local Sidereal Time
07:40:45
Azimuth
Unknown
Elevation
Unknown
Doppler factor
Unknown
Orbital elements
Apogee altitude
1,192.597 km
Perigee altitude
1,142.604 km
Semi-major axis
7,545.737 km
Eccentricity
0.00331
Inclination
82.5755°
RAAN
158.4155°
Arg. of periapsis
134.2397°
True anomaly
225.87275°
Mean anomaly
226.1457°
Eccentric anomaly
226.00915°
Mean motion
3.31124 °/min
Orbital period
108.72 mins
BSTAR
0.00094005
Loading maneuver chart data...
Computing Atmospheric mass density...
Loading historical data...
Loading historical data...
Loading historical data...
Loading historical data...
Loading historical data...
Loading historical data...
Loading historical data...

Documentation

Showing up to 5 results
|